This demonstration page uses our WeatherBlox Daily Observations layout. Learn more.

Left ArrowRight Arrow

39.12711, -84.51439

Hourly Observations for September 25, 2021

Temp ( °F °C ) Dew Point ( °F °C ) Humidity (%) Winds ( mph kmh ) Pressure ( in mb ) Visibility ( mi km ) Precip ( " mm )
12:53 am 00:53 Clear 53 11.7 53 11.7 100 100 N N/A 30.04 1017 8 13 N/A
1:53 am 01:53 Clear 53 11.7 53 11.7 100 100 N N/A 30.04 1017 10 16 N/A
2:42 am 02:42 Clear with Mist and Fog 53 11.7 53 11.7 100 100 N N/A 30.04 1017 1 2 N/A
2:50 am 02:50 Clear with Mist and Fog 52 11 52 11 100 100 N N/A 30.05 1017 1 1 N/A
2:53 am 02:53 Clear with Mist and Fog 52 11.1 52 11.1 100 100 N N/A 30.04 1017 1 2 N/A
2:56 am 02:56 Clear with Mist and Fog 52 11.1 52 11.1 100 100 N N/A 30.05 1017 3 5 N/A
3:05 am 03:05 Mostly Clear with Mist and Fog 50 10 50 10 100 100 N N/A 30.05 1018 1 2 N/A
3:07 am 03:07 Mostly Cloudy with Mist and Fog 51 10.6 51 10.6 100 100 N N/A 30.05 1017 1 1 N/A
3:16 am 03:16 Clear with Mist and Fog 52 11.1 52 11.1 100 100 N N/A 30.05 1017 1 2 N/A
3:21 am 03:21 Mostly Cloudy with Mist and Fog 52 11.1 52 11.1 100 100 N N/A 30.05 1017 1 1 N/A
3:30 am 03:30 Mostly Clear with Mist and Fog 52 11.1 52 11.1 100 100 N N/A 30.04 1017 1 2 N/A
3:32 am 03:32 Mostly Clear with Mist and Fog 52 11.1 52 11.1 100 100 N N/A 30.04 1017 4 6 N/A
3:53 am 03:53 Clear 52 11.1 52 11.1 100 100 N N/A 30.02 1017 9 14 N/A
4:53 am 04:53 Clear 51 10.6 51 10.6 100 100 N N/A 30.01 1016 10 16 N/A
5:53 am 05:53 Clear 52 11.1 52 11.1 100 100 N N/A 30.01 1016 10 16 N/A
6:53 am 06:53 Mostly Clear 54 12.2 51 10.6 90 90 SSW 8 13 30.04 1017 10 16 N/A
7:53 am 07:53 Cloudy 58 14.4 53 11.7 84 84 S 3 6 30.06 1018 10 16 N/A
8:53 am 08:53 Cloudy 59 15 55 12.8 87 87 S 7 11 30.04 1017 10 16 N/A
9:53 am 09:53 Mostly Cloudy 59 15 55 12.8 87 87 SSW 7 11 30.05 1018 10 16 0.00 0.00
10:53 am 10:53 Mostly Cloudy 61 16.1 56 13.3 84 84 SW 8 13 30.06 1018 10 16 N/A
11:53 am 11:53 Cloudy 63 17.2 56 13.3 78 78 WNW 10 17 30.07 1018 10 16 N/A
12:53 pm 12:53 Cloudy 65 18.3 55 12.8 70 70 W 13 20 30.07 1018 10 16 N/A
1:53 pm 13:53 Partly Cloudy 70 21.1 55 12.8 59 59 WSW 12 19 30.06 1018 10 16 N/A
2:53 pm 14:53 Sunny 70 21.1 49 9.4 47 47 WNW 9 15 30.04 1017 10 16 N/A
3:53 pm 15:53 Sunny 71 21.7 45 7.2 39 39 WNW 8 13 30.04 1017 10 16 N/A
4:53 pm 16:53 Sunny 71 21.7 44 6.7 38 38 W 13 20 30.03 1017 10 16 N/A
5:53 pm 17:53 Sunny 69 20.6 43 6.1 39 39 NW 9 15 30.04 1017 10 16 N/A
6:53 pm 18:53 Sunny 68 20 40 4.4 36 36 NW 10 17 30.05 1018 10 16 N/A
7:53 pm 19:53 Clear 64 17.8 42 5.6 45 45 NW 5 7 30.05 1018 10 16 N/A
8:53 pm 20:53 Clear 54 12.2 49 9.4 83 83 N N/A 30.06 1018 10 16 N/A
9:53 pm 21:53 Clear 52 11.1 49 9.4 89 89 N N/A 30.08 1019 10 16 N/A
10:53 pm 22:53 Clear 50 10 49 9.4 96 96 N N/A 30.09 1019 10 16 N/A
11:53 pm 23:53 Clear 49 9.4 49 9.4 100 100 N N/A 30.09 1019 10 16 N/A

Powered by AerisWeather